Temp
2 2 3 3 3 3 4 5 5 5 6 6 6 7 7 6 6 7 7 7 7 7 6 6 6 6 6 6 6 6 5 5 5 5 5 5 5 4 4 4 3 3 2
2 1 3 3 3 3 3 3 4 4 5 5 5 5 5 5 5 5 6 6 6 6 6 6 6 6 6 5 5 5 5 5 4 4 4 4 4 4 3 3 2 2 2
2 1 1 2 1 2 2 2 3 3 4 4 4 5 5 5 6 6 6 6 5 5 6 6 5 5 5 5 5 5 5 4 4 4 4 4 3 2 3 2 2 1 1
2 2 1 2 2 2 1 1 1 2 3 3 4 4 4 4 4 4 4 5 5 5 5 5 5 5 4 4 4 4 4 4 4 4 3 2 2 2 2 1 1 0 0
2 2 2 1 1 0 0 1 2 2 3 3 3 4 4 4 4 4 4 5 5 5 5 4 4 5 4 4 4 3 3 3 2 3 3 2 2 1 1 1 -0 -0 -1
2 2 1 1 1 1 0 2 1 2 2 2 3 3 4 4 4 4 4 4 4 4 4 4 4 4 4 4 3 3 3 3 2 2 2 1 1 0 0 0 -1 -1 -1
3 2 2 2 1 1 1 -0 1 2 2 3 2 3 2 4 4 4 4 4 3 4 4 3 3 3 3 2 2 3 2 2 2 2 1 1 0 -0 -1 -1 -1 -2 -2
2 2 2 2 1 1 0 1 -0 0 1 2 2 2 2 3 3 3 4 4 3 3 3 3 2 2 2 2 2 1 2 2 1 1 0 0 -0 -1 -1 -2 -2 -3 -3
1 2 2 2 1 1 0 0 -1 0 0 0 1 1 0 1 2 2 2 3 3 3 2 2 2 2 2 2 2 1 2 1 0 -0 -0 -1 -2 -1 -2 -2 -3 -3 -3
1 1 1 1 1 1 1 -0 0 -0 0 0 1 1 2 1 1 2 1 1 1 2 2 2 2 2 1 1 1 1 0 0 -0 -0 -1 -1 -3 -3 -3 -3 -3 -4 -4
0 0 1 1 1 1 1 1 1 1 1 0 0 -0 1 1 1 1 1 1 1 0 1 1 1 1 1 1 1 0 1 0 -1 -1 -2 -2 -4 -4 -3 -4 -4 -4 -4
0 0 0 0 1 1 1 1 1 1 1 1 1 0 1 1 0 1 1 0 1 1 0 1 1 1 0 0 0 -0 -0 -0 -1 -2 -2 -3 -5 -5 -4 -4 -4 -5 -4
0 0 0 1 0 0 0 0 1 2 2 2 2 2 1 0 0 0 1 1 1 1 0 0 1 1 0 0 0 -0 -0 -1 -2 -2 -3 -4 -6 -6 -5 -5 -5 -5 -5
0 0 0 -0 -0 -0 0 0 1 1 2 2 2 2 2 2 1 0 -0 -0 -0 -0 -0 -0 0 -0 -0 -0 -0 -1 -1 -2 -2 -3 -4 -6 -6 -6 -5 -6 -5 -5 -5
-1 -1 -1 -1 -0 -1 -1 -1 -1 0 1 1 2 2 2 2 1 1 1 0 -0 -0 -0 -1 -0 -0 -0 -0 -1 -2 -2 -3 -3 -4 -5 -6 -6 -6 -6 -6 -6 -6 -6
-2 -2 -2 -2 -2 -2 -2 -1 -1 -1 -1 -0 0 1 1 1 1 1 1 0 -0 -0 -0 -1 -1 -1 -2 -2 -3 -3 -3 -4 -4 -5 -6 -6 -7 -6 -6 -6 -6 -6 -6
-3 -3 -3 -2 -2 -2 -2 -2 -2 -2 -2 -2 -1 -1 -0 0 1 1 1 1 1 1 -1 -3 -2 -1 -1 -3 -3 -4 -4 -4 -5 -5 -6 -7 -7 -7 -7 -7 -6 -6 -6
-4 -3 -3 -3 -3 -3 -3 -3 -2 -2 -2 -2 -2 -2 -1 -1 -0 0 -1 -1 -1 -1 -3 -3 -3 -3 -3 -4 -4 -5 -5 -4 -5 -6 -7 -7 -7 -7 -7 -7 -6 -6 -6
-5 -5 -5 -4 -4 -4 -4 -4 -4 -3 -3 -3 -3 -3 -2 -2 -1 -2 -2 -3 -2 -2 -3 -3 -2 -3 -4 -4 -5 -5 -4 -5 -7 -7 -7 -7 -7 -8 -7 -7 -7 -7 -7
-6 -6 -6 -6 -6 -5 -5 -5 -5 -4 -3 -3 -3 -3 -3 -3 -3 -3 -3 -3 -3 -2 -2 -3 -3 -4 -5 -5 -4 -4 -5 -7 -7 -8 -8 -8 -8 -8 -7 -7 -7 -7 -7
-6 -6 -6 -6 -6 -6 -6 -5 -5 -5 -4 -3 -4 -4 -4 -4 -3 -4 -4 -3 -3 -3 -3 -4 -5 -5 -5 -5 -5 -5 -6 -8 -8 -8 -8 -8 -8 -8 -8 -8 -7 -8 -7
-6 -6 -6 -6 -6 -6 -6 -6 -6 -6 -5 -5 -5 -5 -5 -5 -5 -5 -4 -4 -4 -4 -4 -5 -5 -5 -5 -5 -6 -6 -7 -8 -8 -8 -8 -9 -9 -8 -8 -8 -8 -8 -8
-7 -7 -7 -6 -7 -7 -7 -7 -6 -6 -6 -6 -6 -6 -6 -6 -5 -4 -5 -4 -4 -5 -5 -5 -5 -5 -6 -6 -6 -7 -8 -8 -8 -8 -10 -9 -9 -9 -9 -9 -9 -9 -9
-7 -7 -7 -7 -7 -7 -7 -6 -6 -6 -6 -6 -6 -6 -6 -6 -6 -5 -5 -5 -4 -4 -5 -5 -5 -6 -6 -6 -7 -8 -9 -9 -8 -11 -11 -10 -9 -10 -9 -9 -9 -9 -10
-9 -9 -9 -9 -8 -8 -8 -8 -7 -7 -7 -7 -7 -6 -7 -7 -6 -6 -6 -5 -6 -6 -5 -5 -5 -6 -6 -7 -9 -9 -9 -9 -11 -12 -10 -10 -10 -10 -9 -9 -9 -10 -11
-10 -9 -9 -10 -9 -9 -9 -9 -9 -8 -8 -8 -8 -7 -7 -7 -7 -7 -7 -6 -6 -7 -7 -7 -7 -7 -9 -10 -10 -10 -9 -10 -13 -12 -11 -10 -10 -10 -9 -9 -10 -11 -12
Height
3070 3065 3078 3085 3089 3094 3097 3102 3106 3111 3115 3120 3124 3128 3131 3133 3136 3139 3141 3144 3146 3148 3150 3151 3153 3154 3155 3156 3156 3157 3157 3158 3159 3159 3160 3160 3160 3160 3160 3160 3159 3158 3157
3071 3071 3077 3082 3086 3091 3094 3098 3103 3106 3112 3116 3119 3122 3125 3128 3131 3134 3137 3140 3142 3144 3145 3147 3149 3150 3151 3152 3152 3153 3154 3155 3155 3156 3155 3155 3156 3156 3155 3154 3153 3153 3152
3072 3069 3071 3077 3084 3087 3088 3094 3099 3104 3107 3111 3113 3115 3119 3123 3127 3130 3132 3135 3137 3140 3141 3143 3144 3145 3147 3147 3148 3149 3149 3150 3150 3150 3151 3150 3151 3150 3150 3150 3148 3147 3146
3070 3071 3072 3077 3079 3083 3088 3090 3094 3099 3103 3106 3109 3112 3117 3120 3123 3125 3126 3129 3132 3134 3136 3138 3140 3141 3142 3142 3144 3144 3144 3145 3146 3146 3146 3145 3145 3143 3144 3144 3143 3142 3141
3075 3075 3077 3078 3080 3082 3081 3089 3091 3096 3100 3104 3106 3109 3112 3116 3117 3119 3121 3124 3126 3128 3130 3132 3134 3136 3137 3138 3138 3139 3140 3139 3139 3140 3140 3139 3139 3138 3138 3136 3137 3136 3135
3078 3077 3077 3078 3080 3081 3080 3083 3086 3091 3095 3099 3103 3107 3108 3110 3111 3113 3116 3118 3119 3121 3123 3125 3127 3128 3130 3132 3132 3133 3134 3134 3133 3134 3133 3132 3132 3132 3131 3130 3130 3129 3128
3073 3074 3074 3076 3077 3078 3080 3080 3079 3086 3089 3092 3094 3099 3102 3104 3105 3106 3108 3110 3112 3115 3117 3118 3120 3122 3123 3124 3125 3125 3126 3127 3127 3127 3127 3126 3125 3124 3124 3123 3123 3122 3121
3071 3071 3071 3072 3073 3074 3076 3077 3078 3077 3082 3085 3088 3090 3095 3095 3096 3098 3102 3103 3105 3107 3109 3110 3112 3113 3114 3116 3117 3118 3118 3119 3120 3120 3120 3119 3119 3117 3116 3116 3116 3115 3114
3068 3069 3070 3070 3070 3070 3072 3074 3073 3075 3075 3078 3082 3082 3084 3086 3087 3090 3091 3094 3096 3099 3100 3102 3103 3105 3107 3108 3109 3111 3111 3111 3111 3111 3111 3109 3110 3110 3110 3109 3108 3108 3108
3071 3071 3070 3068 3067 3068 3068 3069 3069 3070 3071 3073 3074 3075 3077 3079 3082 3083 3084 3085 3089 3090 3090 3092 3094 3096 3098 3099 3100 3101 3101 3101 3101 3100 3099 3098 3102 3104 3103 3102 3101 3100 3099
3067 3066 3065 3065 3064 3064 3065 3064 3063 3063 3065 3067 3068 3069 3067 3070 3071 3073 3077 3078 3078 3081 3082 3084 3086 3087 3089 3089 3090 3091 3089 3087 3086 3086 3086 3088 3090 3095 3096 3096 3095 3094 3092
3060 3059 3057 3058 3058 3059 3058 3058 3057 3058 3058 3060 3059 3060 3060 3059 3062 3063 3065 3068 3069 3070 3073 3074 3075 3077 3077 3077 3077 3079 3079 3077 3076 3078 3078 3080 3085 3088 3089 3089 3088 3086 3084
3056 3054 3053 3053 3052 3052 3052 3050 3050 3051 3049 3050 3050 3051 3052 3051 3053 3053 3057 3057 3058 3054 3060 3063 3064 3065 3067 3067 3068 3068 3066 3065 3067 3068 3070 3071 3076 3081 3083 3082 3081 3077 3075
3051 3050 3050 3048 3047 3045 3043 3042 3042 3042 3043 3042 3041 3041 3041 3043 3044 3045 3046 3049 3048 3047 3044 3050 3053 3054 3055 3055 3055 3056 3056 3057 3059 3059 3062 3064 3067 3073 3075 3075 3073 3070 3068
3048 3046 3045 3043 3042 3040 3038 3037 3036 3034 3032 3032 3032 3032 3032 3031 3032 3033 3036 3038 3039 3039 3035 3037 3039 3041 3041 3041 3043 3044 3046 3049 3051 3051 3055 3059 3061 3064 3067 3068 3066 3062 3059
3046 3044 3042 3040 3039 3036 3034 3032 3030 3028 3027 3025 3025 3024 3023 3022 3022 3022 3023 3025 3026 3027 3028 3029 3028 3031 3033 3035 3036 3037 3037 3041 3044 3045 3049 3055 3055 3056 3059 3060 3059 3055 3054
3043 3038 3036 3034 3033 3031 3028 3026 3025 3023 3022 3020 3019 3017 3015 3013 3012 3011 3011 3011 3012 3013 3016 3017 3020 3023 3027 3026 3028 3030 3032 3036 3038 3037 3042 3048 3050 3050 3050 3051 3052 3049 3046
3033 3032 3030 3028 3027 3025 3022 3020 3019 3018 3015 3013 3010 3008 3006 3004 3002 3001 3001 3002 3002 3003 3006 3009 3011 3013 3014 3016 3019 3023 3028 3026 3030 3034 3037 3040 3041 3045 3044 3044 3044 3041 3039
3029 3026 3024 3021 3019 3018 3015 3013 3011 3010 3008 3005 3001 2998 2996 2995 2993 2993 2994 2993 2996 2997 2998 3001 3002 3003 3006 3010 3013 3017 3019 3022 3025 3028 3032 3033 3035 3038 3038 3037 3035 3032 3028
3020 3016 3015 3012 3009 3008 3004 3003 3001 2999 2999 2996 2992 2988 2986 2985 2984 2984 2984 2986 2986 2988 2988 2990 2992 2996 2999 3003 3006 3010 3012 3016 3020 3024 3024 3026 3028 3030 3030 3028 3025 3023 3019
3009 3006 3002 2999 2999 2998 2993 2990 2989 2987 2987 2986 2983 2980 2977 2976 2975 2976 2976 2977 2976 2977 2980 2983 2986 2990 2993 2995 2998 3002 3005 3009 3012 3015 3018 3019 3021 3023 3021 3019 3016 3014 3008
2994 2992 2986 2984 2983 2982 2979 2976 2974 2976 2973 2972 2971 2969 2968 2967 2966 2967 2968 2968 2969 2971 2973 2976 2979 2983 2987 2990 2992 2994 2998 3002 3006 3009 3011 3012 3013 3014 3014 3011 3008 3005 3001
2977 2975 2971 2966 2966 2967 2965 2960 2959 2961 2961 2959 2958 2958 2958 2957 2957 2956 2958 2959 2960 2962 2965 2969 2973 2976 2979 2982 2984 2987 2991 2995 2999 3001 3003 3005 3007 3006 3005 3003 2999 2996 2993
2960 2955 2952 2949 2948 2951 2951 2947 2945 2945 2946 2946 2947 2946 2946 2946 2946 2946 2946 2948 2950 2953 2956 2960 2963 2966 2970 2973 2976 2980 2985 2989 2990 2993 2997 2998 2998 2998 2996 2994 2992 2989 2983
2940 2937 2933 2931 2931 2933 2933 2932 2930 2929 2930 2931 2933 2933 2934 2935 2936 2935 2937 2938 2940 2943 2946 2949 2952 2955 2958 2964 2969 2974 2978 2980 2983 2987 2990 2991 2991 2990 2989 2986 2983 2978 2973
2924 2920 2917 2915 2915 2914 2915 2917 2915 2915 2916 2917 2920 2921 2923 2924 2925 2925 2925 2927 2930 2933 2937 2941 2945 2947 2954 2959 2963 2967 2969 2972 2976 2981 2983 2983 2983 2982 2980 2978 2973 2969 2967
Wind_Speed
20 20 29 24 22 19 22 28 31 31 31 29 27 27 25 25 25 25 25 25 24 24 24 25 23 22 22 21 21 20 20 18 17 17 17 17 16 16 17 19 20 21 20
14 13 30 21 21 17 18 25 29 30 29 29 28 28 28 27 26 25 25 25 25 26 26 25 25 25 24 23 22 22 20 19 19 19 19 18 17 17 19 21 22 22 22
16 17 7 14 11 10 14 20 27 29 29 30 31 31 30 29 28 26 27 27 26 26 27 27 26 26 26 25 24 24 23 23 21 21 20 20 20 19 20 21 23 24 23
8 11 8 12 23 24 14 20 24 27 28 30 31 30 28 26 25 25 27 27 27 27 27 27 27 27 27 26 25 25 25 24 22 23 22 21 22 23 23 23 24 24 24
9 10 12 15 13 18 14 20 20 23 25 29 30 30 30 29 29 30 30 29 29 29 29 29 28 29 29 28 27 26 25 24 24 25 25 24 24 25 25 25 25 25 24
9 5 8 16 17 20 9 23 22 16 21 22 24 28 31 31 33 33 31 31 32 32 31 31 30 30 29 29 28 28 27 28 27 27 27 27 26 26 26 27 26 27 26
10 14 13 12 18 16 15 16 21 21 22 28 29 30 31 34 35 35 34 33 33 32 31 30 29 29 29 30 29 29 28 30 30 30 30 29 27 26 28 27 27 27 27
7 11 14 14 15 18 19 17 16 24 30 30 31 28 34 37 36 36 37 36 35 34 33 32 32 31 32 32 30 30 30 30 31 32 31 30 32 28 29 28 27 27 27
8 9 12 14 14 16 22 23 19 16 23 36 41 39 38 37 40 37 37 38 38 37 36 36 36 35 34 34 34 33 33 33 35 36 38 37 27 28 29 27 28 28 28
16 15 14 12 11 13 18 24 27 25 25 28 32 34 36 41 39 38 36 38 37 39 40 40 38 36 35 37 37 37 36 37 39 38 34 29 26 28 29 29 28 28 29
17 16 19 17 16 15 15 17 22 27 29 29 32 36 32 35 38 42 44 39 39 41 42 40 40 39 40 40 42 45 45 45 44 41 33 27 23 28 31 29 28 29 30
22 20 22 22 20 21 22 23 22 24 25 29 30 38 46 41 45 34 39 48 44 42 44 45 43 50 45 45 45 46 48 47 45 40 28 22 25 28 29 29 29 29 31
20 18 19 22 25 23 24 25 29 29 27 28 29 33 39 45 48 39 44 41 44 43 50 50 48 49 50 49 48 45 50 49 41 31 27 22 23 26 28 28 28 29 32
23 17 17 17 17 19 22 24 25 30 32 31 31 32 36 40 44 52 44 47 46 49 43 53 51 51 50 49 50 49 48 44 38 31 23 21 22 26 28 28 29 30 32
18 15 13 13 14 16 17 19 20 22 28 33 34 35 35 36 40 46 48 47 50 50 45 44 48 48 57 56 54 48 42 38 34 26 20 22 24 25 27 29 30 29 29
11 11 12 13 14 16 17 19 20 19 22 26 30 32 34 35 35 39 43 48 53 52 55 54 46 43 50 48 44 42 35 37 30 22 21 24 22 24 27 28 29 28 27
15 17 17 19 21 24 25 26 23 23 24 24 26 31 34 35 35 36 38 42 45 48 48 47 45 48 50 45 42 36 39 33 25 23 24 23 22 24 27 27 27 26 29
17 20 21 25 25 27 30 32 32 31 32 29 30 29 30 33 35 32 31 33 34 39 36 39 40 46 42 35 34 34 34 24 25 24 24 23 23 26 24 25 25 28 31
19 23 25 28 30 33 35 37 39 42 40 33 34 32 31 31 34 33 30 26 28 30 28 34 37 37 37 36 33 32 27 29 26 25 24 24 24 20 25 24 26 29 32
27 32 34 36 39 40 42 43 47 51 47 43 38 32 33 31 33 29 30 31 29 30 35 36 38 37 36 32 29 30 33 29 26 25 25 23 19 24 23 25 27 31 35
50 50 52 54 53 52 55 54 51 51 50 48 42 34 30 35 31 29 28 33 28 30 29 31 35 35 32 33 33 33 29 28 27 25 25 20 21 23 24 26 29 32 36
61 57 58 60 58 55 50 48 44 38 41 36 37 35 33 31 32 29 32 28 32 29 29 33 36 32 28 31 31 32 31 29 27 29 24 19 22 23 25 27 30 33 35
54 52 52 54 52 46 41 44 45 39 39 36 36 33 34 36 32 33 32 33 32 31 31 30 33 31 29 32 35 34 30 29 33 26 17 21 23 24 25 28 31 33 35
59 59 57 56 55 47 43 44 46 46 45 42 40 40 37 37 34 34 36 36 36 36 34 37 30 37 37 39 37 32 32 36 27 16 19 22 22 23 26 29 31 33 33
55 54 53 53 50 49 47 44 46 47 46 44 38 38 38 38 35 37 34 38 40 43 44 40 42 42 42 37 31 33 37 28 19 17 22 22 24 24 27 29 31 32 31
48 50 48 42 40 41 43 46 41 43 42 41 37 36 37 36 35 29 31 33 45 47 48 45 44 43 29 31 34 38 33 22 18 20 23 23 23 25 28 29 29 29 29
Wind_Direction
286 227 202 212 208 206 216 211 209 213 214 214 215 218 219 221 224 226 224 224 223 223 226 228 229 229 227 226 229 228 230 234 240 246 253 257 260 266 271 273 274 277 277
251 233 204 197 211 217 233 216 213 213 216 217 218 218 219 221 222 225 228 229 228 228 228 230 232 233 233 233 234 237 240 243 244 249 252 259 264 269 273 276 277 277 277
279 229 286 192 275 224 210 215 216 215 216 219 221 223 223 225 228 230 231 232 232 232 234 234 234 235 237 239 239 241 240 242 244 250 255 263 267 270 274 274 276 277 277
271 277 295 279 279 275 225 211 212 217 219 224 227 229 230 230 231 233 233 234 235 236 237 238 240 239 239 241 242 243 247 250 255 258 261 262 267 273 274 275 274 274 277
312 302 291 273 290 283 240 233 222 228 233 233 234 235 235 235 233 233 234 235 236 237 239 240 241 244 245 244 247 250 252 253 255 259 263 267 270 273 275 274 274 275 277
258 272 275 263 268 283 217 193 222 238 233 249 259 260 248 240 238 238 238 239 238 235 236 238 240 240 243 246 248 251 254 257 257 261 264 265 268 272 273 275 276 278 280
265 265 270 264 252 273 287 221 201 220 236 246 258 260 252 254 245 241 238 237 239 239 240 241 242 245 245 246 248 249 252 258 261 263 263 263 266 270 272 273 274 276 280
284 287 282 274 256 252 262 276 251 226 222 236 252 253 248 239 240 242 243 240 239 239 239 237 239 241 242 244 247 251 256 259 260 261 264 265 267 267 266 270 273 275 278
329 319 311 296 272 264 256 263 269 258 246 245 246 247 255 245 235 235 235 237 238 238 239 239 239 241 242 245 249 250 256 257 261 262 266 265 261 265 267 269 271 274 278
311 297 299 305 313 287 270 258 262 263 260 255 246 250 245 251 248 244 241 239 240 238 238 240 240 241 244 245 246 249 250 256 256 259 254 253 260 267 269 268 269 273 278
297 295 295 288 284 279 278 272 270 270 263 266 254 242 243 235 240 242 247 247 241 243 240 241 241 243 242 244 248 247 249 250 248 246 247 250 261 265 267 269 273 277 283
312 298 287 284 278 271 269 267 268 267 267 266 259 245 250 247 241 247 244 240 245 244 241 241 240 242 241 244 248 250 256 259 248 247 248 249 255 261 265 269 274 279 285
320 314 299 292 284 279 281 277 266 264 266 266 264 262 251 255 254 253 248 257 243 244 238 240 240 242 247 248 248 254 263 260 247 245 240 240 253 261 265 269 275 283 287
322 310 303 299 303 294 283 279 274 266 262 261 263 263 262 259 258 259 264 261 260 259 248 238 240 242 249 250 254 261 264 256 245 241 237 238 247 258 266 273 280 284 288
317 312 309 306 304 306 309 308 295 278 265 261 261 263 263 261 260 258 256 253 256 258 265 261 256 251 252 247 254 254 263 247 239 237 233 242 247 259 270 276 281 286 288
301 300 298 304 307 310 320 321 315 312 296 277 267 265 264 266 263 261 259 254 253 255 261 267 269 265 270 263 253 267 255 238 236 234 236 242 251 261 270 279 284 285 289
289 285 289 294 298 299 301 308 308 314 303 298 290 275 269 266 264 264 263 259 257 257 256 263 260 260 270 259 254 259 244 234 236 228 234 242 253 263 271 275 277 284 290
259 271 287 292 296 301 305 307 310 309 309 305 292 290 283 272 269 265 262 263 264 253 254 252 259 258 261 250 252 242 232 236 236 234 237 245 255 263 267 271 279 288 295
258 275 284 287 289 294 297 301 305 308 309 304 300 286 285 283 274 266 260 262 257 263 256 248 252 256 256 244 236 231 239 235 229 231 239 246 254 260 265 274 285 294 303
279 283 284 288 294 297 297 297 300 303 306 301 300 287 280 279 278 269 251 259 248 254 250 248 247 241 238 240 233 240 234 224 227 233 241 248 248 259 270 281 291 299 303
292 292 292 293 294 295 298 297 294 297 299 292 291 286 288 279 275 259 252 260 251 240 245 246 238 236 235 227 231 233 226 223 229 236 240 236 252 264 275 286 294 300 305
297 296 296 297 297 296 292 291 286 289 285 277 277 278 280 291 268 263 247 255 245 241 240 236 231 226 233 235 235 230 226 227 233 237 231 239 257 268 278 290 298 304 308
293 290 289 288 289 292 282 282 281 275 271 273 268 273 275 279 286 254 245 254 257 245 232 225 228 231 250 234 231 228 224 230 233 226 228 249 259 271 286 296 302 306 306
283 284 282 280 279 278 271 266 270 273 267 273 271 265 266 271 277 264 261 239 239 239 238 226 240 242 235 235 231 224 225 229 223 218 242 254 268 280 291 297 301 304 308
292 290 287 282 279 272 269 264 262 268 267 269 264 264 258 266 271 269 266 255 244 235 235 231 236 231 231 227 220 224 226 220 214 230 248 260 271 283 291 297 302 306 311
298 295 294 286 285 280 275 271 265 262 262 266 262 260 258 260 267 273 266 260 243 232 229 229 229 229 221 219 226 227 221 210 219 237 252 264 275 285 292 298 304 307 305